Location: Bayshore Village Mobile Home Park
(26.6945°N, 81.8642°W)
Time: 15:36:54
(UTC+00:00)

Meteor 1-23 Rocket - Pass Details

Date: 17 June 2021
Orbit: 839 x 886 km, 81.3° (Epoch: 26 July)

Event Time Altitude Azimuth Distance (km) Brightness Sun altitude
Rises 00:36:51 0° 175° (S) 3,465 7.1 -3.6°
Reaches altitude 10° 00:39:21 10° 171° (S) 2,524 6.3 -4.1°
Maximum altitude 00:44:57 56° 94° (E) 1,031 4.4 -5.2°
Drops below altitude 10° 00:50:30 10° 17° (NNE) 2,508 6.8 -6.3°
Sets 00:52:57 0° 14° (NNE) 3,440 7.6 -6.8°
